#timestamp,LO_Frequency,Hit,StdDev 
1521550815.1,286046997.8,N
1521550835.9,286046997.3,N
1521550855.7,286046998.4,N
1521550875.5,286047002.0,N
1521550895.4,286047002.4,N
1521550915.2,286047003.9,N
1521550935.1,286047003.9,N
1521550936.0,286047003.9,N
1521550955.8,286047001.5,N
1521550975.6,286047000.8,N
1521550995.5,286046998.2,N
1521551015.3,286047002.7,N
1521551035.1,286047003.7,N
1521551055.9,286047004.1,N
1521551075.7,286047001.4,N
1521551095.6,286047003.5,N
1521551115.4,286047001.5,N
1521551135.2,286047001.4,N
1521551155.1,286047002.1,N
1521551156.0,286047002.1,N
1521551175.8,286047000.1,N
1521551195.6,286047001.1,N
1521551215.5,286046996.9,N
1521551235.3,286046997.5,N
1521551255.1,286046999.5,N
1521551275.9,286046997.8,N
1521551295.7,286046997.4,N
1521551315.6,286046998.4,N
1521551335.4,286047000.5,N
1521551355.2,286047001.9,N
1521551375.1,286047001.4,N
1521551376.0,286047001.4,N
1521551395.8,286047002.4,N
1521551415.7,286047001.0,N
1521551435.5,286046999.8,N
1521551455.3,286046999.7,N
1521551475.2,286046999.9,N
1521551495.9,286047000.6,N
1521551515.7,286046998.7,N
1521551535.6,286046999.5,N
1521551555.4,286046998.0,N
1521551575.3,286046993.5,Y
1521551595.1,286046997.9,P
1521551596.0,286046997.9,N
1521551615.8,286046999.5,N
1521551635.7,286046996.6,Y
1521551655.5,286047001.1,P
1521551675.4,286047001.2,N
1521551695.2,286046998.2,N
1521551715.0,286047000.7,N
1521551715.9,286047000.7,N
1521551735.8,286047001.4,N
1521551755.6,286047001.7,N
1521551775.4,286047002.8,N
1521551795.3,286047001.1,N
1521551815.1,286046999.8,N
1521551835.9,286047002.6,N
1521551855.7,286047002.1,N
1521551875.5,286047000.0,N
1521551895.4,286047002.8,N
1521551915.2,286046999.9,N
1521551935.1,286047001.4,N
1521551936.0,286047001.4,N
1521551955.8,286047002.6,N
1521551975.6,286047001.6,N
1521551995.5,286047003.2,N
1521552015.3,286047002.6,N
1521552035.2,286047001.4,N
1521552055.9,286047003.5,N
1521552075.7,286047003.9,N
1521552095.6,286046999.8,N
1521552115.4,286046999.9,N
1521552135.2,286047002.6,N
1521552155.1,286046999.7,N
1521552156.0,286046999.7,N
1521552175.8,286047002.3,N
1521552195.7,286047000.4,N
1521552215.5,286047001.0,N
1521552235.3,286047000.2,N
1521552255.2,286047000.7,N
1521552275.0,286046999.8,N
1521552275.9,286046999.8,N
1521552295.7,286047000.5,N
1521552315.6,286047000.4,N
1521552335.4,286046998.8,N
1521552355.3,286047000.5,N
1521552375.1,286047002.8,N
1521552376.0,286047002.8,N
1521552395.8,286047002.3,N
1521552415.7,286047004.1,N
1521552435.5,286047004.4,Y
1521552455.3,286046999.9,P
1521552475.2,286047002.7,P
1521552495.0,286046998.3,N
1521552495.9,286046998.3,N
1521552515.8,286047002.8,N
1521552535.6,286046999.0,N
1521552555.4,286046998.5,N
1521552575.3,286047002.3,N
1521552595.1,286047001.9,N
1521552615.9,286047001.7,N
1521552635.7,286047000.0,N
1521552655.5,286047000.7,N
1521552675.4,286046999.4,N
1521552695.2,286046995.1,Y
1521552715.0,286046997.0,P
1521552715.9,286046997.0,N
1521552735.8,286046994.9,P
1521552755.6,286046997.7,N
1521552775.5,286046996.0,N
1521552795.3,286046996.9,N
1521552815.1,286046997.9,N
1521552835.9,286046995.6,N
1521552855.7,286046993.6,Y
1521552875.5,286046997.4,P
1521552895.4,286046997.2,P
1521552915.2,286046995.6,P
1521552935.1,286046994.9,Y
1521552936.0,286046994.9,P
1521552955.8,286047000.7,N
1521552975.6,286046998.6,N
1521552995.5,286046996.5,N
1521553015.3,286046997.0,N
1521553035.2,286046998.4,N
1521553055.9,286046998.2,N
1521553075.7,286046998.1,N
1521553095.6,286046997.0,N
1521553115.4,286047000.3,N
1521553135.2,286046998.8,N
1521553155.1,286046999.0,N
1521553156.0,286046999.0,N
1521553175.8,286047000.8,N
1521553195.7,286047002.3,N
1521553215.5,286047002.4,N
1521553235.3,286047002.3,N
1521553255.2,286047000.3,N
1521553275.0,286047000.5,N
1521553275.9,286047000.5,N
1521553295.7,286047001.6,N
1521553315.6,286047007.5,Y
1521553335.4,286047004.9,P
1521553355.3,286047006.0,N
1521553375.1,286047003.2,N
1521553376.0,286047003.2,N
1521553395.8,286047003.2,N
1521553415.7,286047006.0,N
1521553435.5,286047004.1,N
1521553455.3,286047001.3,N
1521553475.2,286047002.1,N
1521553495.0,286047002.5,N
1521553495.9,286047002.5,N
1521553515.8,286047004.4,N
1521553535.6,286047004.1,N
1521553555.4,286047001.5,N
1521553575.3,286047004.4,N
1521553595.1,286046999.8,N
1521553615.9,286047000.3,N
1521553635.7,286047002.4,N
1521553655.5,286046999.8,N
1521553675.4,286047002.4,N
1521553695.2,286047002.2,N
1521553715.0,286047001.4,N
1521553715.9,286047001.4,N
1521553735.8,286047004.0,N
1521553755.6,286047004.1,N
1521553775.4,286047003.9,N
1521553795.3,286047002.4,N
1521553815.1,286047002.8,N
1521553835.9,286046999.9,N
1521553855.7,286047002.5,N
1521553875.5,286046999.9,N
1521553895.4,286047000.9,N
1521553915.2,286047000.0,N
1521553935.0,286047000.1,N
1521553936.0,286047000.1,N
1521553955.8,286047000.9,N
1521553975.6,286046996.1,N
1521553995.5,286046997.4,N
1521554015.3,286046998.0,N
1521554035.1,286046995.6,N
1521554055.9,286046995.5,N
1521554075.7,286046996.2,N
1521554095.6,286046996.9,N
1521554115.4,286046999.4,N
1521554135.2,286046999.1,N
1521554155.1,286046998.7,N
1521554156.0,286046998.7,N
1521554175.8,286047001.0,N
1521554195.6,286046998.7,N
1521554215.5,286047000.7,N
1521554235.3,286047000.0,N
1521554255.2,286047002.4,N
1521554275.9,286046999.9,N
1521554295.7,286046999.2,N
1521554315.6,286046998.8,N
1521554335.4,286046998.5,N
1521554355.2,286047000.4,N
1521554375.1,286046999.7,N
1521554376.0,286046999.7,N
1521554395.8,286047000.6,N
